Location: El Álamo
(40.2307°N, 3.9945°W)
Time: 04:54:18
(UTC+00:00)

Cosmos 2058 Rocket - Pass Details

Date: 19 May 2025
Orbit: 604 x 634 km, 82.5° (Epoch: 23 June)

Event Time Altitude Azimuth Distance (km) Brightness Sun altitude
Exits shadow 20:36:36 - 169° (SSE) 2,078 5.3 -11.6°
Reaches altitude 10° 20:36:46 10° 168° (SSE) 2,010 5.2 -11.6°
Maximum altitude 20:41:05 50° 93° (E) 806 3.3 -12.3°
Drops below altitude 10° 20:45:24 10° 19° (NNE) 2,016 6.0 -12.9°
Sets 20:47:41 0° 14° (NNE) 2,924 6.9 -13.2°
